• Join FlightAware (Why Join?)
  • Login
  • US Flag 
10:06PM EST


 

Airport Tracker/Info


-or-


 

Live Flight TrackerFlight Track Log ✈ ACA952 ✈ 23-Jul-2014 ✈ CYUL - TFFF / FDF

Flight Track Log - Related Links

Times and Time Zones

All times are in EDT time to prevent confusion due to time zone crossing. See the ACA952 flight status page for this flight to view local times or setup timezone preferences in your user account.

Time Position Orientation Groundspeed Altitude Reporting Facility
EDT Latitude Longitude Course Direction KTS MPH feet Rate Location/Type
12:36PM 45.4500 -73.7667 145° Southeast 150 173 1,200  Level Montreal Center
12:39PM 45.3483 -73.8708 216° Southwest 231 266 5,700 2,400 Climbing Boston Center
12:39PM 45.2833 -73.8000 143° Southeast 310 357 8,400 2,867 Climbing Montreal Center
12:40PM 45.2333 -73.6833 121° Southeast 330 380 11,100 2,650 Climbing Montreal Center
12:41PM 45.1833 -73.5667 121° Southeast 330 380 13,700 2,350 Climbing Montreal Center
12:42PM 45.1333 -73.4500 121° Southeast 350 403 15,800 2,300 Climbing Montreal Center
12:43PM 45.4620 -73.7332 137° Southeast  Level FlightAware Approximate
12:43PM 45.0667 -73.3333 129° Southeast 350 403 18,300  Level Montreal Center
12:44PM 45.3635 -73.6135 145° Southeast  Level FlightAware Approximate
12:44PM 45.0000 -73.2500 139° Southeast 360 414 20,100  Level Montreal Center
12:45PM 44.9333 -73.1500 133° Southeast 370 426 21,800 1,500 Climbing Montreal Center
12:46PM 44.8500 -73.0333 135° Southeast 370 426 23,100 1,250 Climbing Montreal Center
12:47PM 44.7833 -72.9333 133° Southeast 400 460 24,300 900 Climbing Montreal Center
12:48PM 44.7000 -72.8167 135° Southeast 430 495 24,900 1,050 Climbing Montreal Center
12:49PM 44.6167 -72.6500 125° Southeast 450 518 26,400 1,250 Climbing Montreal Center
12:50PM 44.5500 -72.5333 129° Southeast 450 518 27,400 1,100 Climbing Montreal Center
12:51PM 44.4667 -72.3833 128° Southeast 460 529 28,600 1,050 Climbing Montreal Center
12:52PM 44.3833 -72.2500 131° Southeast 470 541 29,500 913 Climbing Montreal Center
12:53PM 44.3703 -72.2097 114° Southeast 468 539 30,000 1,161 Climbing Boston Center
12:54PM 44.2889 -72.0683 129° Southeast 469 540 31,300 1,230 Climbing Boston Center
12:55PM 44.1975 -71.9106 129° Southeast 467 537 32,500 960 Climbing Boston Center
12:56PM 44.1108 -71.7589 128° Southeast 467 537 33,300 871 Climbing Boston Center
12:57PM 44.0275 -71.6167 129° Southeast 471 542 34,300 843 Climbing Boston Center
12:58PM 43.9517 -71.4844 129° Southeast 463 533 35,000 336 Climbing Boston Center
12:59PM 43.8706 -71.3489 130° Southeast 458 527 35,000  Level Boston Center
01:00PM 43.7894 -71.2111 129° Southeast 458 527 35,000 149 Level Boston Center
01:01PM 43.6919 -71.0478 130° Southeast 459 528 35,300 435 Climbing Boston Center
01:02PM 43.6100 -70.9181 131° Southeast 459 528 35,900 677 Climbing Boston Center
01:03PM 43.5253 -70.7786 130° Southeast 460 529 36,700 532 Climbing Boston Center
01:04PM 43.4394 -70.6494 132° Southeast 459 528 37,000 145 Climbing Boston Center
01:05PM 43.3297 -70.5439 145° Southeast 462 532 37,000  Level Boston Center
01:06PM 43.2200 -70.4633 152° Southeast 449 517 37,000  Level Boston Center
01:07PM 43.1111 -70.3825 152° Southeast 449 517 37,000  Level Boston Center
01:08PM 43.0006 -70.3006 152° Southeast 449 517 37,000  Level Boston Center
01:09PM 42.8894 -70.2186 152° Southeast 451 519 37,000  Level Boston Center
01:11PM 42.7642 -70.1269 152° Southeast 451 519 37,000  Level Boston Center
01:12PM 42.6550 -70.0472 152° Southeast 450 518 37,000  Level Boston Center
01:13PM 42.5475 -69.9689 152° Southeast 442 509 37,000  Level Boston Center
01:14PM 42.4403 -69.8908 152° Southeast 440 506 37,000  Level Boston Center
01:15PM 42.3333 -69.8139 152° Southeast 439 505 37,000  Level Boston Center
01:16PM 42.2047 -69.7219 152° Southeast 438 504 37,000  Level Boston Center
01:17PM 42.0983 -69.6442 152° Southeast 438 504 37,000  Level Boston Center
01:18PM 41.9867 -69.5653 152° Southeast 436 502 37,000  Level Boston Center
01:19PM 41.8800 -69.4894 152° Southeast 435 501 37,000  Level Boston Center
01:20PM 41.7725 -69.4133 152° Southeast 436 502 37,000  Level Boston Center
01:21PM 41.6667 -69.3392 152° Southeast 432 497 37,000  Level Boston Center
01:22PM 41.5592 -69.2639 152° Southeast 433 498 37,000  Level Boston Center
01:23PM 41.4444 -69.1836 152° Southeast 433 498 37,000  Level Boston Center
01:24PM 41.3389 -69.1100 152° Southeast 432 497 37,000  Level Boston Center
01:25PM 41.2347 -69.0367 152° Southeast 428 493 37,000  Level Boston Center
01:26PM 41.1303 -68.9650 153° Southeast 425 489 37,000  Level Boston Center
01:27PM 41.0064 -68.8806 153° Southeast 420 483 37,000  Level Boston Center
01:28PM 40.9044 -68.8103 152° Southeast 416 479 37,000 -49 Level Boston Center
01:29PM 40.8028 -68.7400 152° Southeast 415 478 36,900  Descending Boston Center
01:30PM 40.7011 -68.6697 152° Southeast 415 478 37,000 48 Climbing Boston Center
01:31PM 40.5953 -68.5994 153° Southeast 421 484 37,000 49 Level Boston Center
01:32PM 40.4906 -68.5272 152° Southeast 422 486 37,100  Climbing Boston Center
01:33PM 40.3856 -68.4550 152° Southeast 423 487 37,000 -48 Descending Boston Center
01:34PM 40.2564 -68.3703 153° Southeast 427 491 37,000  Level Boston Center
01:35PM 40.1492 -68.2972 152° Southeast 433 498 37,000  Level Boston Center
01:37PM 40.0089 -68.2106 155° Southeast 435 501 37,000  Level New York Center
01:38PM 39.8972 -68.1442 155° Southeast 435 501 37,000  Level New York Center
01:39PM 39.7853 -68.0806 156° South 435 501 37,000  Level New York Center
01:40PM 39.6714 -68.0175 157° South 440 506 37,000  Level New York Center
01:41PM 39.5572 -67.9517 156° South 445 512 37,000  Level New York Center
01:42PM 39.4450 -67.8836 155° Southeast 445 512 37,000  Level New York Center
01:43PM 39.3164 -67.8189 159° South 445 512 37,000  Level New York Center
01:44PM 39.2128 -67.7642 158° South 445 512 37,000  Level New York Center
01:45PM 39.0964 -67.6992 157° South 445 512 37,000  Level New York Center
01:48PM 38.8833 -67.5667 157° South 463 533 37,000  Level New York Oceanic (ODAPS)
02:17PM 35.1572 -65.6678 178° South 441 507 37,000  Level New York Center
02:18PM 34.9787 -65.6701 178° South 463 533 37,000  Level FlightAware Transoceanic
02:18PM 35.0358 -65.6553 175° South 471 542 37,000  Level New York Center
02:19PM 34.8430 -65.6636 178° South 463 533 37,000  Level FlightAware Transoceanic
02:19PM 34.8833 -65.6497 178° South 493 567 37,000  Level New York Center
02:20PM 34.7074 -65.6570 178° South 463 533 37,000  Level FlightAware Transoceanic
02:20PM 34.7458 -65.6533 181° South 499 574 37,000  Level New York Center
02:21PM 34.5717 -65.6505 178° South 463 533 37,000  Level FlightAware Transoceanic
02:21PM 34.6239 -65.6358 173° South 494 568 37,000  Level New York Center
02:22PM 34.4361 -65.6440 178° South 463 533 37,000  Level FlightAware Transoceanic
02:22PM 34.4719 -65.6403 181° South 500 575 37,000  Level New York Center
02:23PM 34.3004 -65.6375 178° South 463 533 37,000  Level FlightAware Transoceanic
02:23PM 34.3503 -65.6278 175° South 491 565 37,000  Level New York Center
02:24PM 34.1997 -65.6172 177° South 501 577 37,000  Level New York Center
02:25PM 34.0619 -65.6133 179° South 501 577 37,000  Level New York Center
02:26PM 33.9367 -65.6086 178° South 501 577 37,000  Level New York Center
02:27PM 33.7861 -65.6006 177° South 501 577 37,000  Level New York Center
02:28PM 33.6461 -65.5969 179° South 501 577 37,000  Level New York Center
02:29PM 33.5061 -65.5906 178° South 501 577 37,000  Level New York Center
02:30PM 33.3703 -65.5792 176° South 498 573 37,000  Level New York Center
02:31PM 33.2450 -65.5769 179° South 498 573 37,000  Level New York Center
02:32PM 33.0906 -65.5717 178° South 503 579 37,000  Level New York Center
02:33PM 32.9550 -65.5725 180° South 503 579 37,000  Level New York Center
02:34PM 32.8278 -65.5706 179° South 503 579 37,000  Level New York Center
02:35PM 32.6756 -65.5675 179° South 498 573 37,000  Level New York Center
02:36PM 32.5461 -65.5631 178° South 504 580 37,000  Level New York Center
02:37PM 32.3936 -65.5550 177° South 509 586 37,000  Level New York Center
02:38PM 32.2519 -65.5514 179° South 509 586 37,000  Level New York Center
02:39PM 32.1286 -65.5442 177° South 509 586 37,000  Level New York Center
02:40PM 31.9742 -65.5364 178° South 509 586 37,000  Level New York Center
02:41PM 31.8508 -65.5317 178° South 498 573 37,000  Level New York Center
02:42PM 31.6983 -65.5167 175° South 503 579 37,000  Level New York Center
02:43PM 31.5603 -65.5078 177° South 503 579 37,000  Level New York Center
02:44PM 31.4353 -65.5056 179° South 503 579 37,000  Level New York Center
02:45PM 31.2786 -65.4931 176° South 503 579 37,000  Level New York Center
02:46PM 31.1389 -65.4894 179° South 503 579 37,000  Level New York Center
02:47PM 31.0158 -65.4822 177° South 503 579 37,000  Level New York Center
02:48PM 30.8594 -65.4772 178° South 503 579 37,000  Level New York Center
02:49PM 30.7322 -65.4678 176° South 508 585 37,000  Level New York Center
02:50PM 30.5803 -65.4672 180° South 513 590 37,000  Level New York Center
02:51PM 30.4383 -65.4564 176° South 513 590 37,000  Level New York Center
02:52PM 30.3133 -65.4542 179° South 508 585 37,000  Level New York Center
02:53PM 30.1611 -65.4464 177° South 508 585 37,000 50 Level New York Center
02:54PM 30.0217 -65.4428 179° South 503 579 37,100 300 Climbing New York Center
02:55PM 29.8989 -65.4406 179° South 503 579 37,600 545 Climbing New York Center
02:56PM 29.7425 -65.4331 178° South 498 573 38,200 700 Climbing New York Center
02:57PM 29.6172 -65.4236 176° South 503 579 39,000 403 Climbing New York Center
02:58PM 29.4672 -65.4111 176° South 503 579 39,000  Level New York Center
03:16PM 27.3167 -64.9667 169° South 471 542 39,000  Level New York Oceanic (ODAPS)
03:45PM 25.5167 -64.5833 145° Southeast 462 532 39,000  Level New York Oceanic (ODAPS)
03:48PM 23.5000 -63.0500 169° South 452 520 39,000  Level New York Oceanic (ODAPS)
04:07PM 21.0500 -62.5333 170° South 430 495 39,000  Level San Juan Center
04:08PM 20.9043 -62.5237 169° South 452 520 39,000  Level FlightAware Transoceanic
04:08PM 20.9333 -62.5167 172° South 430 495 39,000  Level San Juan Center
04:09PM 20.7806 -62.4991 169° South 452 520 39,000  Level FlightAware Transoceanic
04:09PM 20.8167 -62.4833 165° South 440 506 39,000  Level San Juan Center
04:10PM 20.6570 -62.4745 169° South 452 520 39,000  Level FlightAware Transoceanic
04:10PM 20.7000 -62.4667 172° South 440 506 39,000  Level San Juan Center
04:11PM 20.5333 -62.4500 170° South 452 520 39,000  Level FlightAware Transoceanic
04:11PM 20.5667 -62.4333 167° South 430 495 39,000  Level San Juan Center
04:12PM 20.4127 -62.4266 170° South 452 520 39,000  Level FlightAware Transoceanic
04:12PM 20.4500 -62.4167 172° South 430 495 39,000  Level San Juan Center
04:13PM 20.3333 -62.4000 172° South 440 506 39,000  Level San Juan Center
04:14PM 20.2167 -62.3667 165° South 440 506 39,000  Level San Juan Center
04:15PM 20.1000 -62.3500 172° South 440 506 39,000  Level San Juan Center
04:16PM 19.9833 -62.3167 165° South 440 506 39,000  Level San Juan Center
04:17PM 19.8500 -62.3000 173° South 440 506 39,000  Level San Juan Center
04:18PM 19.7333 -62.2667 165° South 450 518 39,000  Level San Juan Center
04:19PM 19.6167 -62.2500 172° South 440 506 39,000  Level San Juan Center
04:20PM 19.4833 -62.2333 173° South 440 506 39,000  Level San Juan Center
04:21PM 19.3667 -62.2000 165° South 440 506 39,000  Level San Juan Center
04:22PM 19.2500 -62.1833 172° South 440 506 39,000  Level San Juan Center
04:23PM 19.1167 -62.1667 173° South 440 506 39,000  Level San Juan Center
04:24PM 19.0000 -62.1333 165° South 440 506 39,000  Level San Juan Center
04:25PM 18.8833 -62.1167 172° South 440 506 39,000  Level San Juan Center
04:26PM 18.7500 -62.1000 173° South 450 518 39,000  Level San Juan Center
04:27PM 18.6333 -62.0833 172° South 460 529 39,000 -50 Level San Juan Center
04:28PM 18.5000 -62.0500 167° South 470 541 38,900 -50 Descending San Juan Center
04:29PM 18.3667 -62.0333 173° South 460 529 38,900 50 Level San Juan Center
04:30PM 18.2500 -62.0167 172° South 450 518 39,000 50 Climbing San Juan Center
04:31PM 18.1333 -62.0000 172° South 440 506 39,000  Level San Juan Center
04:32PM 18.0167 -61.9667 165° South 430 495 39,000  Level San Juan Center
04:34PM 17.8493 -61.9231 170° South  Level FlightAware Approximate
04:41PM 17.0056 -61.7630 162° South  Level FlightAware Approximate
04:42PM 16.8888 -61.7240 162° South  Level FlightAware Approximate
04:43PM 16.7716 -61.6862 163° South  Level FlightAware Approximate
04:44PM 16.6543 -61.6486 163° South  Level FlightAware Approximate
04:45PM 16.5370 -61.6111 163° South  Level FlightAware Approximate
04:46PM 16.4183 -61.5833 180° South  Level FlightAware Approximate
04:47PM 16.3016 -61.5462 167° South  Level FlightAware Approximate
04:48PM 16.1837 -61.5112 162° South  Level FlightAware Approximate
04:49PM 16.0665 -61.4735 164° South  Level FlightAware Approximate
04:50PM 15.9485 -61.4388 164° South  Level FlightAware Approximate
04:51PM 15.8305 -61.4040 164° South  Level FlightAware Approximate
04:52PM 15.7129 -61.3677 163° South  Level FlightAware Approximate
04:53PM 15.5954 -61.3312 163° South  Level FlightAware Approximate
04:54PM 15.4778 -61.2948 163° South  Level FlightAware Approximate
04:55PM 15.3603 -61.2584 163° South  Level FlightAware Approximate
04:56PM 15.2425 -61.2228 164° South  Level FlightAware Approximate
04:57PM 15.1251 -61.1861 162° South  Level FlightAware Approximate
04:58PM 15.0083 -61.1472 162° South  Level FlightAware Approximate
04:59PM 14.8909 -61.1106 164° South  Level FlightAware Approximate
05:00PM 14.7747 -61.0707 154° Southeast  Level FlightAware Approximate
05:01PM 14.6566 -61.0380 169° South  Level FlightAware Approximate
05:02PM 14.5910 -61.0032 136° Southeast  Level Estimated
05:03PM 14.5910 -61.0032 136° Southeast  Level Estimated
05:04PM 14.5910 -61.0032 136° Southeast  Level Estimated
05:05PM 14.5910 -61.0032 136° Southeast  Level Estimated
05:06PM 14.5910 -61.0032 136° Southeast  Level Estimated
05:07PM 14.5910 -61.0032 136° Southeast  Level Estimated
05:08PM 14.5910 -61.0032 136° Southeast  Level Estimated
05:09PM 14.5910 -61.0032 136° Southeast  Level Estimated
05:10PM 14.5910 -61.0032 136° Southeast  Level Estimated
05:11PM 14.5910 -61.0032 136° Southeast  Level Estimated
05:12PM 14.5910 -61.0032 136° Southeast  Level Estimated
05:13PM 14.5910 -61.0032 136° Southeast  Level Estimated
05:14PM 14.5910 -61.0032 136° Southeast  Level Estimated
05:15PM 14.5910 -61.0032 136° Southeast  Level Estimated